Terminal Aerodrome Forecast
Issued by NWS

Home | Current Version | Previous Version | Text Only | Print | Product List | Glossary On
Versions: 1 2 3 4 5 6 7 8 9 10 11 12 13 14 15 16 17 18 19 20 21 22 23 24 25 26 27 28 29 30 31 32 33 34 35 36 37 38 39 40 41 42 43 44 45 46 47 48 49 50
000
FTUS42 KMFL 250956 AAC
TAFTMB
TAF AMD
KTMB 250956Z 2510/2606 35014KT P6SM VCSH SCT006 OVC011
      TEMPO 2510/2512 2SM SHRA BKN006
     FM251500 33008KT P6SM SCT015 BKN025
     FM260000 04010KT P6SM SCT020 BKN050=

USA.gov is the U.S. government's official web portal to all federal, state and local government web resources and services.